This is the latest recevied weather packets stored in our database for station/object SR3WXA. If no packets are shown the sender has not sent any weather packets the latest 10 day(s).
| Time | Temp. | Humidity | Pressure | Rain* | Wind** | Luminosity | Snow |
|---|---|---|---|---|---|---|---|
| 1778095872 | 10.56° C | 89% | 1007.9 hPa | 0 mm | - | 0 W/m² | - |
| 1778094672 | 11.11° C | 89% | 1007.8 hPa | 0 mm | - | 0 W/m² | - |
| 1778094372 | 11.11° C | 88% | 1007.8 hPa | 0 mm | - | 0 W/m² | - |
| 1778094072 | 11.11° C | 88% | 1007.8 hPa | 0 mm | - | 0 W/m² | - |
| 1778093435 | 11.67° C | 88% | 1007.6 hPa | 0 mm | - | 0 W/m² | - |
| 1778093136 | 11.67° C | 88% | 1007.4 hPa | 0 mm | - | 0 W/m² | - |
| 1778092835 | 11.67° C | 87% | 1007.4 hPa | 0 mm | - | 0 W/m² | - |
| 1778092567 | 11.67° C | 87% | 1007.4 hPa | 0 mm | - | 0 W/m² | - |
| 1778092535 | 11.67° C | 87% | 1007.4 hPa | 0 mm | - | 0 W/m² | - |
| 1778092235 | 11.67° C | 87% | 1007.3 hPa | 0 mm | - | 0 W/m² | - |
| 1778091973 | 11.67° C | 87% | 1007.1 hPa | 0 mm | - | 5 W/m² | - |
| 1778091936 | 11.67° C | 87% | 1007.1 hPa | 0 mm | - | 5 W/m² | - |
| 1778091667 | 12.22° C | 86% | 1007.1 hPa | 0 mm | - | 11 W/m² | - |
| 1778091635 | 12.22° C | 86% | 1007.1 hPa | 0 mm | - | 11 W/m² | - |
| 1778091335 | 12.22° C | 86% | 1007.1 hPa | 0 mm | - | 14 W/m² | - |
| 1778090735 | 12.22° C | 86% | 1007 hPa | 0 mm | - | 26 W/m² | - |
| 1778090345 | 12.22° C | 86% | 1006.9 hPa | 0 mm | - | 25 W/m² | - |
| 1778090312 | 12.22° C | 86% | 1006.9 hPa | 0 mm | - | 25 W/m² | - |
| 1778090012 | 12.78° C | 86% | 1006.9 hPa | 0 mm | - | 25 W/m² | - |
| 1778089712 | 12.22° C | 86% | 1006.9 hPa | 0 mm | - | 26 W/m² | - |
| 1778089412 | 12.78° C | 85% | 1006.9 hPa | 0 mm | - | 30 W/m² | - |
| 1778089143 | 12.78° C | 85% | 1006.9 hPa | 0 mm | - | 42 W/m² | - |
| 1778089112 | 12.78° C | 85% | 1006.9 hPa | 0 mm | - | 42 W/m² | - |
| 1778088812 | 12.78° C | 85% | 1006.9 hPa | 0 mm | - | 49 W/m² | - |
| 1778088512 | 12.78° C | 85% | 1006.8 hPa | 0 mm | - | 53 W/m² | - |
* Rain latest hour (hover to see other rain measurements)
** Current wind speed in m/s (hover to see current wind gust speed)